Stations météo

Publicité
St. James's Park, Grande-Bretagne (3770): Température de l'air & dewpoint: 15.10.2019 06:00:00 - 21.10.2019 06:00:00 (BST)St. James's Park, Grande-Bretagne (3770): Température de l'air -20cm & Température de l'air -100cm: 15.10.2019 06:00:00 - 21.10.2019 06:00:00 (BST)St. James's Park, Grande-Bretagne (3770): Quantités de précipitations: 15.10.2019 06:00:00 - 21.10.2019 06:00:00 (BST)
Date & Time tt [°C] td [°C] tt -20cm [°C] tt -100cm [°C] rr [mm]
21.10.2019 06:00:00 - - - - -
21.10.2019 05:00:00 11,2 9,2 - - 0,0
21.10.2019 04:00:00 11,4 8,8 - - 0,0
21.10.2019 03:00:00 11,6 8,6 - - 0,0
21.10.2019 02:00:00 11,6 8,7 - - 0,0
21.10.2019 01:00:00 11,6 9,1 - - 0,0
21.10.2019 00:00:00 11,2 8,8 - - 0,0
20.10.2019 23:00:00 11,1 8,7 - - 0,0
20.10.2019 22:00:00 11,0 8,5 - - 0,0
20.10.2019 21:00:00 11,1 8,0 - - 0,0
20.10.2019 20:00:00 11,1 7,7 - - 0,0
20.10.2019 19:00:00 11,5 7,5 - - 0,0
20.10.2019 18:00:00 11,8 7,4 - - 0,0
20.10.2019 17:00:00 11,9 7,2 - - 0,0
20.10.2019 16:00:00 12,0 7,0 - - 0,0
20.10.2019 15:00:00 12,0 7,1 - - 0,0
20.10.2019 14:00:00 12,2 8,1 - - 0,0
20.10.2019 13:00:00 11,6 7,3 - - 0,0
20.10.2019 12:00:00 11,7 7,7 - - 0,0
20.10.2019 11:00:00 10,6 7,3 - - 0,0
20.10.2019 10:00:00 9,1 7,1 13,0 15,2 0,0
20.10.2019 09:00:00 7,3 6,8 - - 0,0
20.10.2019 08:00:00 7,4 6,8 - - 0,0
20.10.2019 07:00:00 7,6 7,2 - - 0,2
20.10.2019 06:00:00 7,6 7,4 - - 0,0
20.10.2019 05:00:00 6,3 6,0 - - 0,0
20.10.2019 04:00:00 6,5 6,1 - - 0,0
20.10.2019 03:00:00 6,4 6,0 - - 0,0
20.10.2019 02:00:00 6,9 6,4 - - 0,0
20.10.2019 01:00:00 7,2 6,6 - - 0,0
20.10.2019 00:00:00 7,8 7,3 - - 0,0
19.10.2019 23:00:00 7,8 7,1 - - 0,0
19.10.2019 22:00:00 8,3 7,4 - - 0,0
19.10.2019 21:00:00 8,9 7,4 - - 0,0
19.10.2019 20:00:00 9,7 7,6 - - 0,0
19.10.2019 19:00:00 10,0 7,4 - - 0,0
19.10.2019 18:00:00 11,3 7,6 - - 0,0
19.10.2019 17:00:00 13,0 7,8 - - 0,0
19.10.2019 16:00:00 12,6 9,9 - - 1,2
19.10.2019 15:00:00 14,3 7,9 - - 0,0
19.10.2019 14:00:00 14,8 6,7 - - 0,0
19.10.2019 13:00:00 14,0 8,3 - - 0,0
19.10.2019 12:00:00 14,3 8,5 - - 0,0
19.10.2019 11:00:00 12,5 8,4 - - 0,0
19.10.2019 10:00:00 11,6 8,6 13,7 15,4 0,0
19.10.2019 09:00:00 10,6 8,7 - - 0,0
19.10.2019 08:00:00 9,8 8,9 - - 0,0
19.10.2019 07:00:00 9,5 8,3 - - 0,0
19.10.2019 06:00:00 10,4 8,6 - - 0,0
19.10.2019 05:00:00 10,4 8,8 - - 0,0
19.10.2019 04:00:00 10,7 8,8 - - 0,0
19.10.2019 03:00:00 10,9 8,8 - - 0,0
19.10.2019 02:00:00 10,7 8,5 - - 0,0
19.10.2019 01:00:00 10,9 8,1 - - 0,2
19.10.2019 00:00:00 11,8 9,4 - - 0,2
18.10.2019 23:00:00 11,3 9,1 - - 0,4
18.10.2019 22:00:00 12,3 8,6 - - 0,0
18.10.2019 21:00:00 12,1 8,0 - - 0,0
18.10.2019 20:00:00 12,7 7,7 - - 0,0
18.10.2019 19:00:00 12,8 7,9 - - 0,0
18.10.2019 18:00:00 12,9 8,3 - - 0,0
18.10.2019 17:00:00 13,1 9,0 - - 0,2
18.10.2019 16:00:00 15,0 7,6 - - 0,0
18.10.2019 15:00:00 15,1 8,5 - - 0,0
18.10.2019 14:00:00 15,0 8,8 - - 0,0
18.10.2019 13:00:00 15,6 8,7 - - 0,0
18.10.2019 12:00:00 14,6 8,9 - - 0,0
18.10.2019 11:00:00 12,6 8,3 - - 0,0
18.10.2019 10:00:00 10,7 8,5 14,0 15,5 0,0
18.10.2019 09:00:00 9,7 8,1 - - 0,0
18.10.2019 08:00:00 9,9 8,3 - - 0,0
18.10.2019 07:00:00 10,1 8,4 - - 0,0
18.10.2019 06:00:00 10,1 9,0 - - 0,0
18.10.2019 05:00:00 10,1 8,9 - - 0,2
18.10.2019 04:00:00 10,3 9,2 - - 2,4
18.10.2019 03:00:00 10,6 9,0 - - 3,0
18.10.2019 02:00:00 11,7 10,2 - - 0,0
18.10.2019 01:00:00 11,6 10,1 - - 0,2
18.10.2019 00:00:00 11,5 9,8 - - 0,0
17.10.2019 23:00:00 11,3 9,6 - - 0,0
17.10.2019 22:00:00 11,4 9,5 - - 0,0
17.10.2019 21:00:00 11,5 9,3 - - 0,0
17.10.2019 20:00:00 11,7 9,4 - - 0,0
17.10.2019 19:00:00 12,4 9,4 - - 0,0
17.10.2019 18:00:00 13,6 9,9 - - 0,0
17.10.2019 17:00:00 14,3 9,4 - - 0,0
17.10.2019 16:00:00 14,7 10,7 - - 0,0
17.10.2019 15:00:00 13,8 11,5 - - 0,2
17.10.2019 14:00:00 13,1 11,8 - - 3,2
17.10.2019 13:00:00 13,6 11,6 - - 1,0
17.10.2019 12:00:00 13,4 9,5 - - 0,0
17.10.2019 11:00:00 13,9 8,8 - - 0,0
17.10.2019 10:00:00 12,2 8,6 14,4 15,7 0,0
17.10.2019 09:00:00 10,1 8,7 - - 0,0
17.10.2019 08:00:00 8,9 7,8 - - 0,0
17.10.2019 07:00:00 9,4 8,6 - - 0,0
17.10.2019 06:00:00 9,2 8,6 - - 0,0
17.10.2019 05:00:00 8,7 8,0 - - 0,0
17.10.2019 04:00:00 9,1 7,5 - - 0,0
17.10.2019 03:00:00 10,7 8,2 - - 0,0
17.10.2019 02:00:00 10,7 7,8 - - 0,0
17.10.2019 01:00:00 10,5 8,0 - - 0,0
17.10.2019 00:00:00 9,9 8,3 - - 0,0
16.10.2019 23:00:00 8,7 7,3 - - 0,0
16.10.2019 22:00:00 9,2 7,5 - - 0,0
16.10.2019 21:00:00 9,5 6,8 - - 0,0
16.10.2019 20:00:00 10,5 7,7 - - 0,0
16.10.2019 19:00:00 11,7 6,7 - - 0,0
16.10.2019 18:00:00 13,7 6,6 - - 0,0
16.10.2019 17:00:00 15,0 7,4 - - 0,0
16.10.2019 16:00:00 15,5 6,1 - - 0,0
16.10.2019 15:00:00 15,4 7,5 - - 0,0
16.10.2019 14:00:00 15,2 8,7 - - 0,0
16.10.2019 13:00:00 15,0 10,8 - - 0,0
16.10.2019 12:00:00 14,3 11,4 - - 0,0
16.10.2019 11:00:00 13,8 11,6 - - 0,0
16.10.2019 10:00:00 16,4 15,0 14,7 15,7 0,0
16.10.2019 09:00:00 14,6 14,1 - - 1,4
16.10.2019 08:00:00 14,1 13,2 - - 0,0
16.10.2019 07:00:00 13,7 12,8 - - 0,0
16.10.2019 06:00:00 13,4 12,3 - - 0,6
16.10.2019 05:00:00 13,6 11,7 - - 0,0
16.10.2019 04:00:00 12,4 10,8 - - 0,0
16.10.2019 03:00:00 11,9 10,1 - - 0,0
16.10.2019 02:00:00 11,6 9,8 - - 0,0
16.10.2019 01:00:00 10,9 9,3 - - 0,0
16.10.2019 00:00:00 11,1 9,2 - - 0,0
15.10.2019 23:00:00 11,4 9,7 - - 0,0
15.10.2019 22:00:00 12,3 10,2 - - 0,0
15.10.2019 21:00:00 12,7 10,6 - - 0,0
15.10.2019 20:00:00 13,1 10,8 - - 0,0
15.10.2019 19:00:00 13,9 10,7 - - 0,0
15.10.2019 18:00:00 14,8 10,9 - - 0,2
15.10.2019 17:00:00 16,2 10,5 - - 0,0
15.10.2019 16:00:00 15,9 10,7 - - 0,0
15.10.2019 15:00:00 16,4 10,1 - - 0,0
15.10.2019 14:00:00 17,2 10,3 - - 0,0
15.10.2019 13:00:00 16,2 11,4 - - 0,0
15.10.2019 12:00:00 14,0 11,1 - - 0,0
15.10.2019 11:00:00 13,2 10,6 - - 0,0
15.10.2019 10:00:00 12,3 10,0 14,7 15,7 0,0
15.10.2019 09:00:00 11,4 9,9 - - 0,0
15.10.2019 08:00:00 11,1 9,6 - - 0,0
15.10.2019 07:00:00 11,2 9,5 - - 0,0
15.10.2019 06:00:00 11,4 9,6 - - 0,0

tt = Température de l'air
td = dewpoint
tt -20cm = Température de l'air -20cm
tt -100cm = Température de l'air -100cm
rr = Quantités de précipitations

stations d'obs. à proximité